Weather History for KMWA - March, 2014

Change the Weather History Date:

Sunday, March 9, 2014

  Actual Average Record
Temperature  
Mean Temperature 38 °F -  
Max Temperature 50 °F 52 °F 78 °F (1974)
Min Temperature 26 °F 30 °F 13 °F (1984)
Degree Days  
Heating Degree Days 27    
Moisture  
Dew Point 31 °F    
Average Humidity 83    
Maximum Humidity 100    
Minimum Humidity 50    
Precipitation  
Precipitation 0.00 in - - ()
Sea Level Pressure  
Sea Level Pressure 30.22 in    
Wind  
Wind Speed 4 mph (SSW)    
Max Wind Speed 13 mph    
Max Gust Speed -    
Visibility 8 miles    
Events      
Averages and records for this station are not official NWS values.
T = Trace of Precipitation, MM = Missing Value Source: NWS Daily Summary

Daily Weather History Graph

Daily Weather History Graph

Search for Another Location

Airport or City:

Trip Planner

Search our weather history database for the weather conditions in past years. The results will help you decide how hot, cold, wet, or windy it might be!

Date:

Astronomy

Mar. 09, 2014 Rise Set
Actual Time 7:16 AM CDT 6:57 PM CDT
Civil Twilight 6:49 AM CDT 7:23 PM CDT
Nautical Twilight 6:19 AM CDT 7:54 PM CDT
Astronomical Twilight 5:49 AM CDT 8:24 PM CDT
Moon 12:54 PM CDT (3/9) 3:37 AM CDT (3/9)
Length of Visible Light 12h 33m
Length of Day
11h 41m
First Quarter, 61% of the Moon is Illuminated
Mar 9
First Quarter
Mar 16
Full
Mar 23
Last Quarter
Mar 30
New
Apr 7
First Quarter

Hourly Weather History & Observations

Time (CDT) Temp. Windchill Dew Point Humidity Pressure Visibility Wind Dir Wind Speed Gust Speed Precip Events Conditions
12:15 AM 35.6 °F 30.7 °F 30.2 °F 81% 30.29 in 7.0 mi North 5.8 mph - N/A   Scattered Clouds
12:35 AM 35.6 °F 30.7 °F 30.2 °F 81% 30.30 in 7.0 mi North 5.8 mph - N/A   Clear
12:55 AM 33.8 °F 29.6 °F 30.2 °F 87% 30.29 in 7.0 mi North 4.6 mph - N/A   Clear
1:15 AM 33.8 °F 29.6 °F 30.2 °F 87% 30.30 in 7.0 mi North 4.6 mph - N/A   Clear
1:35 AM 33.8 °F 30.8 °F 30.2 °F 87% 30.30 in 7.0 mi North 3.5 mph - N/A   Clear
1:55 AM 32.0 °F - 28.4 °F 87% 30.30 in 7.0 mi Calm Calm - N/A   Clear
3:15 AM 30.2 °F - 28.4 °F 93% 30.31 in 5.0 mi Calm Calm - N/A   Clear
3:35 AM 30.2 °F - 28.4 °F 93% 30.31 in 5.0 mi Calm Calm - N/A   Clear
3:55 AM 30.2 °F - 28.4 °F 93% 30.31 in 4.0 mi Calm Calm - N/A   Clear
4:15 AM 28.4 °F - 26.6 °F 93% 30.31 in 4.0 mi Calm Calm - N/A   Clear
4:35 AM 28.4 °F - 26.6 °F 93% 30.31 in 4.0 mi Calm Calm - N/A   Clear
4:55 AM 28.4 °F - 26.6 °F 93% 30.31 in 3.0 mi Calm Calm - N/A   Clear
5:15 AM 26.6 °F - 26.6 °F 100% 30.31 in 3.0 mi Calm Calm - N/A   Clear
5:35 AM 28.4 °F - 26.6 °F 93% 30.32 in 3.0 mi Calm Calm - N/A   Mostly Cloudy
5:55 AM 30.2 °F - 28.4 °F 93% 30.32 in 3.0 mi Calm Calm - N/A   Overcast
6:15 AM 30.2 °F - 28.4 °F 93% 30.32 in 4.0 mi Calm Calm - N/A   Overcast
6:35 AM 30.2 °F - 28.4 °F 93% 30.32 in 4.0 mi Calm Calm - N/A   Overcast
6:53 AM 32.0 °F 26.4 °F 30.2 °F 93% 30.33 in 4.0 mi South 5.8 mph - N/A   Overcast
6:55 AM 32.0 °F - 30.2 °F 93% 30.32 in 4.0 mi Calm Calm - N/A   Overcast
7:15 AM 32.0 °F - 30.2 °F 93% 30.33 in 4.0 mi Calm Calm - N/A   Overcast
7:53 AM 32.0 °F 26.4 °F 30.2 °F 93% 30.33 in 2.5 mi SW 5.8 mph - N/A   Overcast
8:53 AM 33.8 °F 28.6 °F 30.2 °F 87% 30.34 in 4.0 mi South 5.8 mph - N/A   Overcast
10:53 AM 35.6 °F 30.7 °F 28.4 °F 75% 30.36 in 7.0 mi NW 5.8 mph - N/A   Overcast
11:53 AM 37.4 °F 33.8 °F 28.4 °F 70% 30.33 in 10.0 mi SW 4.6 mph - N/A   Mostly Cloudy
12:55 PM 39.2 °F 37.0 °F 30.2 °F 70% 30.30 in 20.0 mi ENE 3.5 mph - N/A   Scattered Clouds
1:55 PM 41.0 °F 35.2 °F 30.2 °F 65% 30.25 in 20.0 mi SW 9.2 mph - N/A   Clear
2:55 PM 44.6 °F 41.4 °F 32.0 °F 61% 30.23 in 20.0 mi SSW 5.8 mph - N/A   Clear
3:55 PM 48.2 °F - 32.0 °F 54% 30.17 in 20.0 mi SSW 9.2 mph - N/A   Clear
4:55 PM 50.0 °F - 32.0 °F 50% 30.15 in 20.0 mi SSW 4.6 mph - N/A   Clear
5:55 PM 50.0 °F - 33.8 °F 54% 30.13 in 20.0 mi SW 9.2 mph - N/A   Clear
7:55 PM 42.8 °F 37.0 °F 33.8 °F 70% 30.11 in 10.0 mi South 10.4 mph - N/A   Clear
8:15 PM 42.8 °F 36.2 °F 35.6 °F 76% 30.11 in 10.0 mi South 12.7 mph - N/A   Clear
8:35 PM 41.0 °F 34.7 °F 35.6 °F 81% 30.11 in 10.0 mi South 10.4 mph - N/A   Clear
8:55 PM 41.0 °F 34.3 °F 35.6 °F 81% 30.11 in 7.0 mi South 11.5 mph - N/A   Clear
9:15 PM 39.2 °F 33.6 °F 33.8 °F 81% 30.11 in 7.0 mi SSW 8.1 mph - N/A   Clear
9:35 PM 39.2 °F 33.0 °F 33.8 °F 81% 30.11 in 7.0 mi SSW 9.2 mph - N/A   Clear
10:00 PM 39.2 °F 33.6 °F 33.8 °F 81% 30.10 in 7.0 mi SSW 8.1 mph - N/A   Clear
10:15 PM 39.2 °F 34.2 °F 33.8 °F 81% 30.10 in 7.0 mi SSW 6.9 mph - N/A   Clear
10:35 PM 39.2 °F 33.6 °F 33.8 °F 81% 30.10 in 7.0 mi SSW 8.1 mph - N/A   Clear
10:55 PM 39.2 °F 33.6 °F 33.8 °F 81% 30.09 in 7.0 mi SSW 8.1 mph - N/A   Clear
11:15 PM 39.2 °F 34.2 °F 35.6 °F 87% 30.09 in 7.0 mi SSW 6.9 mph - N/A   Clear
11:35 PM 39.2 °F 33.6 °F 33.8 °F 81% 30.08 in 7.0 mi SSW 8.1 mph - N/A   Clear
11:55 PM 39.2 °F 35.0 °F 33.8 °F 81% 30.08 in 7.0 mi SSW 5.8 mph - N/A   Clear
12:15 AM 35.6 °F 29.2 °F 33.8 °F 93% 30.07 in 5.0 mi South 8.1 mph - N/A   Clear
12:35 AM 35.6 °F 29.9 °F 33.8 °F 93% 30.07 in 5.0 mi SSW 6.9 mph - N/A   Clear
12:55 AM 37.4 °F 31.4 °F 33.8 °F 87% 30.07 in 5.0 mi SSW 8.1 mph - N/A   Clear